星链-1602 (STARLINK-1602 )

导读

STARLINK-1602是美国太空探索技术公司(SpaceX)星链(Starlink)计划中的一颗卫星,于2020年8月18日发射升空。星链计划旨在搭建全球卫星互联网,为全球提供高速低延迟网络服务,该卫星为星链星座组网建设补充了节点,推进了全球卫星互联网覆盖进程。

Basic Information
目录编号:
46121
目录名称:
STARLINK-1602
国际标识:
2020-057E
轨道中心:
EARTH
卫星名称:
星链-1602
卫星全名:
星链-1602 (STARLINK-1602 )
卫星状态:
已陨落 最后检测时间 2025-01-07
发射日期:
2020-08-18 UTC
国别 :
美国 (US)
星等 :
--
Orbit Information
数据来源 国际轨道数据
星历时间: 2025-01-08T00:12:13+0800
轨道信息已过期527天
半长轴: 6547.79km
偏心率: 0.0002755
轨道倾角: 53.030°
近地点辐角 75.781°
升交点赤经 22.352°
平近点角 310.174°
近地点: 167.851km
远地点: 171.459km
周期: 87.882分钟
每日圈数: 16.385538
Detailed Information
固有亮度:
5
最大亮度:
2.5
卫星平台:
Starlink V1.0
覆盖范围:
全球
运营商:
太空探索技术公司
运营商所在国:
美国
制造商(研发单位):
太空探索技术公司
制造商所在国:
美国
使用方式:
暂无
Satellite Introduction
星链(Starlink)计划是由太空探索技术公司(SpaceX)提出的一个巨型低轨卫星互联网星座项目,计划在2019年至2024年间在太空搭建由约1.2万颗卫星组成的“星链”网络,其中1584颗将部署在地球上空550千米处的近地轨道,并从2020年开始工作。该卫星仍在工作。